Flag for Germany Weather past 2 weeks in Germering, Bavaria, Germany

Now
72 °F

Sunny.


Feels Like: 77 °F
Forecast: 61 / 85 °F
Wind: 7 mph from Southwest

Location: Oberpfaffenhofen

Current Time: Aug 31, 2015 at 11:50:33 PM

Latest Report: Aug 31, 2015 at 8:20 PM


Visibility: 10 mi

Pressure: 29.98 "Hg (28.17 "Hg at 538m altitude)

Humidity: 53%

Dew point: 54 °F

Location of GermeringLocation

Historic Weather in Germering — Graph

°F

Germering temperature yesterday

Past Weeks' High & Low Weather Summary

 TemperatureHumidityPressure
High86 °F (Aug 29, 4:20 PM)100% (Aug 17, 8:20 AM)30.30 "Hg (Aug 17, 8:20 AM)
Low48 °F (Aug 21, 6:50 AM)27% (Aug 27, 3:20 PM)29.74 "Hg (Aug 24, 2:50 PM)
Average68 °F65%30.07 "Hg
* Reported Aug 17 6:50 AM — Aug 31 8:20 PM, Germering, Weather by CustomWeather, © 2015

Note: Actual official high and low records may vary slightly from our data, if they occured in-between our weather recording intervals... More about our weather records

Advertising

Germering weather history for previous 24 hours

 ConditionsComfort  
Time TempWeatherWind HumidityBarometerVisibility
8:20 PM
Mon, Aug 31
72 °FSunny.7 mph53%29.98 "Hg10 mi
7:50 PM77 °FSunny.7 mph42%29.98 "Hg10 mi
7:20 PM81 °FSunny.9 mph37%29.98 "Hg10 mi
6:50 PM82 °FSunny.9 mph37%29.98 "Hg10 mi
6:20 PM84 °FSunny.12 mph35%29.98 "Hg10 mi
5:50 PM84 °FSunny.10 mph37%29.98 "Hg10 mi
5:20 PM86 °FPassing clouds.8 mph35%29.98 "HgN/A
4:50 PM86 °FSunny.12 mph38%29.98 "Hg10 mi
4:20 PM86 °FSunny.9 mph38%29.98 "Hg10 mi
3:50 PM86 °FPassing clouds.7 mph35%29.98 "HgN/A
3:20 PM86 °FPassing clouds.7 mph33%29.98 "HgN/A
2:50 PM86 °FPassing clouds.6 mph35%30.01 "HgN/A
2:20 PM84 °FPassing clouds.9 mph37%30.01 "HgN/A
1:50 PM84 °FSunny.10 mph37%30.01 "Hg10 mi
1:20 PM84 °FSunny.9 mph37%30.04 "Hg10 mi
12:50 PM82 °FSunny.12 mph40%30.04 "Hg10 mi
12:20 PM82 °FPassing clouds.9 mph42%30.04 "HgN/A
11:50 AM81 °FSunny.10 mph45%30.04 "Hg10 mi
11:20 AM81 °FSunny.12 mph42%30.07 "Hg10 mi
10:50 AM79 °FSunny.12 mph48%30.07 "Hg10 mi
10:20 AM77 °FSunny.13 mph51%30.07 "Hg10 mi
9:50 AM75 °FSunny.12 mph57%30.04 "Hg10 mi
9:20 AM73 °FSunny.12 mph65%30.07 "Hg10 mi
8:50 AM72 °FSunny.6 mph73%30.07 "Hg10 mi
8:20 AM70 °FSunny.6 mph78%30.07 "Hg10 mi
7:50 AM68 °FSunny.5 mph83%30.07 "Hg10 mi
7:20 AM64 °FClear.2 mph88%30.07 "Hg10 mi
6:50 AM64 °FClear.8 mph94%30.07 "Hg10 mi
Weather by CustomWeather, © 2015

See weather overviewHow to use our weather pages